[[{"header":{"parameterUnit":"m.s-1","parameterCategory":1,"la1":30.2991,"la2":30.254,"lo1":-89.0895,"lo2":-89.0444,"dy":0.0017,"dx":0.0017,"nx":28,"ny":28,"refTime":"2024-08-09T21:00:00:Z","depth":0,"parameterNumber":2,"parameterNumberName":"U-component_of_WINDS"},"data":[0,0,0,0,0,0,0,0,0,0,0,0,0,0,0,0,0,0,0,0,0,0,0,0,0,0,0,0,0,0,0,0,0,0,0,0,0,0,0,0,0,0,0,0,0,0,0,0,0,0,0,0,0,0,0,0,0,0,0.3956,0.3955,0,0.3938,0.3938,0.3937,0.3929,0.3929,0.3929,0.393,0.391,0.391,0.3909,0,0,0,0,0,0,0,0,0,0,0,0,0,0.3983,0.3982,0.3956,0.3955,0.3955,0.3938,0.3938,0.3937,0.3929,0.3929,0.393,0.393,0.391,0.391,0.3909,0,0,0,0,0,0,0,0,0,0,0,0,0,0.3969,0.3982,0.3956,0.3949,0.3948,0.3938,0.3938,0.3937,0.3929,0.3929,0.393,0.393,0.3911,0.391,0.3909,0.3903,0,0,0.3906,0.3906,0,0,0,0,0,0,0,0,0.3969,0.3968,0.395,0.395,0.3949,0.3936,0.394,0.3926,0.3929,0.3937,0.393,0.393,0.3919,0.3917,0.3914,0.3902,0.3901,0.3906,0.3906,0.3906,0.3905,0,0,0,0,0,0,0,0.397,0.3968,0.3949,0.395,0.3949,0.3947,0.3945,0.3937,0.3928,0.3936,0.3935,0.3933,0.3918,0.3914,0.3913,0.3901,0.3906,0.3906,0.3905,0.3905,0.3886,0.3886,0,0,0,0,0,0,0.3972,0.3969,0.3949,0.3948,0.3959,0.3947,0.3944,0.394,0.3928,0.3926,0.3933,0.3933,0.3916,0.3914,0.3912,0.3906,0.3906,0.3905,0.3904,0.3886,0.3886,0.3886,0,0,0,0,0,0,0.3973,0.3971,0.395,0.3958,0.3956,0.3946,0.3941,0.394,0.3936,0.3926,0.3924,0.3931,0.3916,0.3914,0.3906,0.3905,0.3904,0.3904,0.3886,0.3886,0.3886,0.3893,0,0,0,0,0,0,0.3974,0.3971,0.3969,0.3958,0.3955,0.3944,0.3941,0.3939,0.3935,0.3934,0.3923,0.3922,0.3916,0.3907,0.3905,0.3904,0.3903,0.3886,0.3886,0.3886,0.3893,0.3893,0.3894,0,0,0,0,0,0.3975,0.397,0.3968,0.3966,0.3952,0.3944,0.3942,0.3935,0.3935,0.3932,0.3926,0.3922,0.3906,0.3907,0.3904,0.3903,0.3886,0.3886,0.3886,0.3893,0.3893,0.3894,0,0,0,0,0,0,0.3979,0.3969,0.3967,0.3959,0.3952,0.3942,0.3939,0.3936,0.3929,0.3929,0.3921,0.3918,0.3912,0.3907,0.3908,0.3898,0.3896,0.3895,0.3902,0.3902,0.3902,0.3904,0.3902,0,0,0,0,0,0.398,0.3974,0.3965,0.3959,0.3956,0.3948,0.3944,0.394,0.3933,0.393,0.3923,0.3916,0.391,0.3905,0.3899,0.3892,0.3891,0.389,0.3891,0.3891,0.3891,0.3889,0.3889,0.3886,0.3886,0.3886,0,0,0.398,0.3973,0.397,0.396,0.3954,0.3949,0.3946,0.394,0.3936,0.3929,0.3922,0.3917,0.3909,0.3902,0.3899,0.3897,0.3891,0.3891,0.3892,0.3891,0.3889,0.3889,0.3889,0.3886,0.3886,0.3886,0,0,0.3978,0.3972,0.3967,0.3962,0.3954,0.3949,0.3948,0.3939,0.3936,0.3929,0.3925,0.392,0.3908,0.3903,0.3899,0.3898,0.3894,0.3896,0.3898,0.3896,0.3896,0.3896,0.3897,0.3897,0.3895,0.3895,0.3895,0,0.3978,0.397,0.3964,0.3959,0.3956,0.395,0.3946,0.3941,0.3931,0.3929,0.3928,0.3915,0.3909,0.3902,0.3902,0.3899,0.3898,0.3897,0.3896,0.3897,0.3897,0.3897,0.3897,0.3896,0.3896,0.3896,0.3896,0,0.3972,0.3967,0.3964,0.3956,0.3952,0.3947,0.3941,0.3937,0.3934,0.393,0.3924,0.3917,0.391,0.3908,0.3904,0.3901,0.39,0.3898,0.3896,0.3897,0.3898,0.3898,0.3896,0.3896,0.3896,0.3896,0,0,0.3971,0.3962,0.3961,0.3958,0.395,0.3946,0.3941,0.3935,0.3933,0.3927,0.3923,0.3915,0.3914,0.3909,0.3905,0.3903,0.3904,0.3901,0.3901,0.3903,0.3902,0.3904,0.3904,0.3902,0.3902,0.3902,0.3903,0,0.3968,0.396,0.3956,0.395,0.3945,0.3941,0.3938,0.3933,0.3929,0.3925,0.3921,0.3916,0.3913,0.3911,0.3909,0.3904,0.3904,0.3904,0.3899,0.3899,0.3902,0.3904,0.3906,0.3907,0.3903,0.3903,0.3903,0,0.3963,0.3958,0.3952,0.3947,0.3945,0.3942,0.3937,0.3933,0.3928,0.3925,0.3922,0.3918,0.3914,0.3913,0.3907,0.3908,0.3906,0.3903,0.3903,0.3903,0.3901,0.3904,0.3908,0.3908,0.3903,0.3903,0.3903,0,0.3964,0.3956,0.3952,0.3949,0.3943,0.3941,0.3938,0.3933,0.393,0.3926,0.3924,0.3919,0.3917,0.3913,0.3909,0.3908,0.3905,0.3903,0.3903,0.3904,0.3903,0.3903,0.3906,0.39,0.39,0.39,0.39,0,0.3961,0.3957,0.3952,0.395,0.3946,0.3942,0.3939,0.3936,0.3932,0.3929,0.3925,0.3923,0.3917,0.3914,0.391,0.3908,0.3906,0.3905,0.3904,0.3905,0.3906,0.3904,0.3904,0.3901,0.3901,0.3901,0.3901,0,0.396,0.3957,0.3952,0.3947,0.3946,0.3944,0.394,0.3937,0.3934,0.3931,0.393,0.3925,0.3922,0.3917,0.3912,0.391,0.3908,0.3906,0.391,0.3909,0.3911,0.3911,0.3913,0.3914,0.3907,0.3907,0.3907,0,0.3959,0.3956,0.3952,0.395,0.3948,0.3945,0.3942,0.3939,0.3937,0.3932,0.3931,0.3927,0.3924,0.3919,0.3915,0.3912,0.3911,0.3912,0.391,0.3912,0.3912,0.3912,0.3913,0.3912,0.3912,0.3912,0.3912,0,0.3957,0.3956,0.3953,0.395,0.3948,0.3945,0.3942,0.3941,0.3937,0.3935,0.3932,0.393,0.3926,0.3923,0.3919,0.3917,0.3914,0.3913,0.3913,0.3915,0.3917,0.3917,0.3911,0.3913,0.3913,0.3913,0.3913,0.3913,0.3956,0.3955,0.3952,0.3949,0.3947,0.3945,0.3944,0.3941,0.3939,0.3936,0.3934,0.3931,0.3928,0.3924,0.3921,0.392,0.3919,0.3919,0.3919,0.3919,0.392,0.3918,0.3919,0.3919,0.3919,0.3919,0.3919,0,0.3955,0.3954,0.3951,0.3948,0.3947,0.3946,0.3943,0.3942,0.394,0.3938,0.3935,0.3933,0.3931,0.3928,0.3925,0.3925,0.3924,0.3925,0.3925,0.3925,0.392,0.3921,0.3926,0.3926,0.3926,0.3926,0.3926,0.3926,0.3954,0.3952,0.3951,0.3948,0.3947,0.3945,0.3944,0.3943,0.3941,0.3939,0.3937,0.3936,0.3934,0.3932,0.393,0.3929,0.3929,0.393,0.3929,0.3925,0.3924,0.3924,0.3924,0.393,0.393,0.3933,0.3933,0.3933]},{"header":{"parameterUnit":"m.s-1","parameterCategory":1,"la1":30.2991,"la2":30.254,"lo1":-89.0895,"lo2":-89.0444,"dy":0.0017,"dx":0.0017,"nx":28,"ny":28,"refTime":"2024-08-09T21:00:00:Z","depth":0,"parameterNumber":3,"parameterNumberName":"V-component_of_WINDS"},"data":[0,0,0,0,0,0,0,0,0,0,0,0,0,0,0,0,0,0,0,0,0,0,0,0,0,0,0,0,0,0,0,0,0,0,0,0,0,0,0,0,0,0,0,0,0,0,0,0,0,0,0,0,0,0,0,0,0,0,-1.9553,-1.9552,0,-1.9495,-1.9494,-1.9493,-1.9453,-1.9453,-1.9453,-1.9452,-1.9388,-1.9387,-1.9386,0,0,0,0,0,0,0,0,0,0,0,0,0,-1.9624,-1.9623,-1.9553,-1.9552,-1.9551,-1.9495,-1.9494,-1.9493,-1.9453,-1.9453,-1.9453,-1.9452,-1.9389,-1.9387,-1.9385,0,0,0,0,0,0,0,0,0,0,0,0,0,-1.9582,-1.9623,-1.9553,-1.9525,-1.9522,-1.9495,-1.9494,-1.9493,-1.9453,-1.9453,-1.9452,-1.9452,-1.9389,-1.9387,-1.9385,-1.9381,0,0,-1.9379,-1.9378,0,0,0,0,0,0,0,0,-1.9585,-1.958,-1.9529,-1.9526,-1.9523,-1.9481,-1.9496,-1.9455,-1.9453,-1.9479,-1.9452,-1.9452,-1.9419,-1.9415,-1.9404,-1.9378,-1.9375,-1.9378,-1.9377,-1.9376,-1.9376,0,0,0,0,0,0,0,-1.9588,-1.9582,-1.953,-1.9529,-1.9525,-1.9513,-1.9507,-1.9488,-1.9452,-1.9477,-1.9474,-1.9468,-1.9417,-1.9407,-1.9403,-1.9374,-1.9379,-1.9377,-1.9375,-1.9374,-1.9338,-1.9339,0,0,0,0,0,0,-1.9596,-1.9585,-1.9531,-1.9528,-1.9554,-1.9512,-1.9505,-1.9495,-1.9452,-1.9445,-1.9468,-1.9466,-1.9411,-1.9405,-1.94,-1.9391,-1.9376,-1.9374,-1.9373,-1.9338,-1.9338,-1.9339,0,0,0,0,0,0,-1.9597,-1.9591,-1.9534,-1.9555,-1.9547,-1.9512,-1.95,-1.9494,-1.9483,-1.9446,-1.9439,-1.9464,-1.941,-1.9403,-1.9386,-1.9388,-1.9373,-1.9371,-1.9338,-1.9338,-1.9338,-1.9373,0,0,0,0,0,0,-1.9599,-1.9592,-1.9591,-1.9556,-1.9546,-1.9522,-1.95,-1.9493,-1.948,-1.9477,-1.944,-1.9434,-1.9409,-1.9389,-1.9384,-1.9385,-1.937,-1.9337,-1.9338,-1.9338,-1.9371,-1.9374,-1.9377,0,0,0,0,0,-1.9602,-1.9603,-1.9591,-1.9585,-1.9545,-1.9522,-1.9516,-1.949,-1.9481,-1.9478,-1.9454,-1.9435,-1.9389,-1.9388,-1.9381,-1.9382,-1.9337,-1.9338,-1.9338,-1.937,-1.9374,-1.9377,0,0,0,0,0,0,-1.9638,-1.9597,-1.9585,-1.9574,-1.9552,-1.9515,-1.9512,-1.9495,-1.9474,-1.9471,-1.9438,-1.943,-1.9415,-1.9397,-1.9396,-1.9374,-1.936,-1.936,-1.9387,-1.939,-1.9393,-1.9397,-1.9368,0,0,0,0,0,-1.9645,-1.9632,-1.9596,-1.959,-1.958,-1.9548,-1.9537,-1.9518,-1.9494,-1.9484,-1.9458,-1.9434,-1.9413,-1.9401,-1.938,-1.9369,-1.9359,-1.9366,-1.9369,-1.9371,-1.9371,-1.9361,-1.9363,-1.9341,-1.9341,-1.9341,0,0,-1.9658,-1.9635,-1.9628,-1.9597,-1.9577,-1.9563,-1.954,-1.9526,-1.9514,-1.9481,-1.9463,-1.9443,-1.9413,-1.9398,-1.939,-1.9382,-1.9375,-1.9372,-1.9374,-1.9372,-1.9362,-1.9364,-1.9366,-1.9342,-1.9341,-1.9341,0,0,-1.9676,-1.9657,-1.9649,-1.9631,-1.9602,-1.9581,-1.9579,-1.9545,-1.9531,-1.9513,-1.9487,-1.9472,-1.9438,-1.9418,-1.9403,-1.9411,-1.9392,-1.9405,-1.942,-1.9412,-1.9413,-1.9415,-1.9416,-1.9417,-1.9405,-1.9405,-1.9405,0,-1.9696,-1.9674,-1.9647,-1.9634,-1.962,-1.9591,-1.9582,-1.9564,-1.953,-1.952,-1.9512,-1.9469,-1.9447,-1.9426,-1.9428,-1.9417,-1.9413,-1.9409,-1.9416,-1.9417,-1.9417,-1.9419,-1.9419,-1.9407,-1.9407,-1.9407,-1.9407,0,-1.9699,-1.9685,-1.9681,-1.9651,-1.9636,-1.9625,-1.9595,-1.9583,-1.9566,-1.9545,-1.9525,-1.9498,-1.9471,-1.9464,-1.9446,-1.944,-1.9436,-1.9422,-1.9408,-1.9422,-1.9422,-1.9423,-1.941,-1.9409,-1.9408,-1.9408,0,0,-1.9737,-1.9692,-1.9691,-1.9676,-1.9642,-1.9629,-1.9616,-1.9591,-1.9581,-1.9558,-1.9545,-1.9517,-1.9504,-1.9487,-1.9466,-1.9459,-1.9465,-1.9445,-1.9444,-1.9449,-1.9455,-1.9465,-1.9466,-1.9453,-1.9453,-1.9453,-1.9457,0,-1.9748,-1.9725,-1.97,-1.9684,-1.9669,-1.9641,-1.9629,-1.9606,-1.9586,-1.9569,-1.9546,-1.9526,-1.9511,-1.95,-1.9492,-1.9466,-1.9466,-1.9466,-1.9438,-1.9437,-1.9446,-1.9466,-1.9477,-1.9482,-1.9457,-1.9457,-1.9457,0,-1.9758,-1.9738,-1.9721,-1.9688,-1.9681,-1.9671,-1.9645,-1.963,-1.9602,-1.9588,-1.9569,-1.9547,-1.953,-1.9518,-1.9492,-1.9493,-1.9479,-1.9465,-1.9465,-1.946,-1.9447,-1.9461,-1.9483,-1.9484,-1.9457,-1.9457,-1.9457,0,-1.9786,-1.9754,-1.974,-1.9728,-1.9689,-1.9683,-1.9666,-1.9638,-1.9624,-1.9601,-1.9591,-1.9566,-1.9552,-1.9532,-1.9503,-1.9497,-1.948,-1.9465,-1.9465,-1.9466,-1.9462,-1.9463,-1.9482,-1.9456,-1.9456,-1.9456,-1.9456,0,-1.9801,-1.9791,-1.9752,-1.9743,-1.9731,-1.9702,-1.969,-1.967,-1.9646,-1.9631,-1.9605,-1.9591,-1.9554,-1.9536,-1.9513,-1.9494,-1.9488,-1.9474,-1.9468,-1.9476,-1.9478,-1.9467,-1.9465,-1.9456,-1.9456,-1.9456,-1.9456,0,-1.9829,-1.9803,-1.9785,-1.975,-1.9741,-1.9734,-1.9702,-1.9692,-1.967,-1.9652,-1.9646,-1.9611,-1.9587,-1.9557,-1.9524,-1.9508,-1.9492,-1.9483,-1.9501,-1.9498,-1.9499,-1.9499,-1.951,-1.951,-1.9486,-1.9486,-1.9486,0,-1.984,-1.9832,-1.9796,-1.9785,-1.977,-1.9752,-1.9738,-1.9708,-1.9694,-1.9662,-1.9655,-1.963,-1.9608,-1.9571,-1.9542,-1.9516,-1.9505,-1.9511,-1.9501,-1.9509,-1.9504,-1.9504,-1.9502,-1.9513,-1.9514,-1.9514,-1.9514,0,-1.9861,-1.9848,-1.983,-1.9806,-1.9791,-1.977,-1.9749,-1.9741,-1.9706,-1.9691,-1.9668,-1.9651,-1.9617,-1.9592,-1.9562,-1.9542,-1.9522,-1.9518,-1.9516,-1.9524,-1.9535,-1.9528,-1.9507,-1.9518,-1.9517,-1.9517,-1.9517,-1.9517,-1.988,-1.9871,-1.9845,-1.9825,-1.9805,-1.9786,-1.9774,-1.9751,-1.9731,-1.9703,-1.9686,-1.9663,-1.9633,-1.9591,-1.9572,-1.9552,-1.9544,-1.9542,-1.9542,-1.9541,-1.9543,-1.9539,-1.9547,-1.9546,-1.9546,-1.9546,-1.9546,0,-1.9898,-1.988,-1.9862,-1.9833,-1.9817,-1.9801,-1.9776,-1.9763,-1.9743,-1.9719,-1.9698,-1.967,-1.9645,-1.9614,-1.9586,-1.9576,-1.9566,-1.957,-1.957,-1.9565,-1.9553,-1.9556,-1.9578,-1.9578,-1.9578,-1.9578,-1.9578,-1.9578,-1.9906,-1.989,-1.9875,-1.9848,-1.9829,-1.9808,-1.9794,-1.9775,-1.9756,-1.9726,-1.9706,-1.9686,-1.9658,-1.9628,-1.9604,-1.9595,-1.9586,-1.9592,-1.958,-1.9569,-1.9566,-1.9563,-1.9567,-1.9591,-1.9591,-1.9594,-1.9594,-1.9594]}]]